User: anonymous   Login
Location: Banksville Park
(38.5557°N, 75.1182°W)
Time: 02:40:20
(UTC+00:00)
Language:

Lacrosse 5 - Orbit

View from above orbital plane
View from above orbital plane
View from above satellite
View from above satellite

Ground track
Ground track

The orbit data is extracted from the following two-line orbital elements,

1 28646U 05016A   20311.73132458 0.00000000  00000-0  00000-0 0    01
2 28646  57.0147 184.9363 0005198  82.7217 277.2782 14.51858680    07
Epoch (UTC): 06 November 2020 17:33:06
Eccentricity: 0.0005198
inclination: 57.0147°
perigee height: 716 km
apogee height: 723 km
right ascension of ascending node: 184.9363°
argument of perigee: 82.7217°
revolutions per day: 14.51858680
mean anomaly at epoch: 277.2782°
orbit number at epoch: 0

The dashed part of the orbit path shows where the satellite is in the earth's shadow,  

DLR